Weather History for KLVS - October, 2013

Change the Weather History Date:

Friday, October 4, 2013

  Actual Average Record
Temperature  
Mean Temperature 51 °F -  
Max Temperature 64 °F 71 °F 84 °F (1980)
Min Temperature 39 °F 41 °F 30 °F (1959)
Degree Days  
Heating Degree Days 14    
Growing Degree Days 1 (Base 50)    
Moisture  
Dew Point 18 °F    
Average Humidity 25    
Maximum Humidity 38    
Minimum Humidity 13    
Precipitation  
Precipitation 0.00 in - - ()
Sea Level Pressure  
Sea Level Pressure 29.75 in    
Wind  
Wind Speed 17 mph (West)    
Max Wind Speed 28 mph    
Max Gust Speed 38 mph    
Visibility 10 miles    
Events      
Averages and records for this station are not official NWS values.
T = Trace of Precipitation, MM = Missing Value Source: NWS Daily Summary

Daily Weather History Graph

Daily Weather History Graph

Search for Another Location

Airport or City:

Trip Planner

Search our weather history database for the weather conditions in past years. The results will help you decide how hot, cold, wet, or windy it might be!

Date:

Astronomy

Oct. 04, 2013 Rise Set
Actual Time 6:58 AM MDT 6:39 PM MDT
Civil Twilight 6:32 AM MDT 7:05 PM MDT
Nautical Twilight 6:03 AM MDT 7:34 PM MDT
Astronomical Twilight 5:33 AM MDT 8:04 PM MDT
Moon 6:35 AM MDT (10/4) 6:24 PM MDT (10/4)
Length of Visible Light 12h 32m
Length of Day
11h 41m
Waning Crescent, 0% of the Moon is Illuminated
Oct 4
Waning Crescent
Oct 4
New
Oct 11
First Quarter
Oct 18
Full
Oct 26
Last Quarter

Hourly Weather History & Observations

Time (MDT) Temp. Windchill Dew Point Humidity Pressure Visibility Wind Dir Wind Speed Gust Speed Precip Events Conditions
12:53 AM 55.9 °F - 26.1 °F 32% 29.60 in 10.0 mi SW 17.3 mph - N/A   Clear
1:53 AM 55.9 °F - 26.1 °F 32% 29.62 in 10.0 mi SW 17.3 mph - N/A   Clear
2:53 AM 54.0 °F - 27.0 °F 35% 29.61 in 10.0 mi SW 13.8 mph 21.9 mph N/A   Clear
3:53 AM 55.0 °F - 27.0 °F 34% 29.61 in 10.0 mi SW 15.0 mph 21.9 mph N/A   Clear
4:53 AM 55.0 °F - 28.0 °F 35% 29.62 in 10.0 mi SW 17.3 mph - N/A   Clear
5:53 AM 52.0 °F - 27.0 °F 38% 29.65 in 10.0 mi SW 18.4 mph 25.3 mph N/A   Clear
6:53 AM 53.1 °F - 27.0 °F 37% 29.67 in 10.0 mi WSW 18.4 mph 34.5 mph N/A   Clear
7:53 AM 54.0 °F - 28.0 °F 37% 29.72 in 10.0 mi WSW 12.7 mph 25.3 mph N/A   Clear
8:53 AM 57.0 °F - 27.0 °F 32% 29.72 in 10.0 mi West 27.6 mph 38.0 mph N/A   Clear
9:53 AM 59.0 °F - 25.0 °F 27% 29.74 in 10.0 mi West 25.3 mph 33.4 mph N/A   Clear
10:53 AM 60.1 °F - 23.0 °F 24% 29.75 in 10.0 mi West 25.3 mph 35.7 mph N/A   Clear
11:53 AM 62.1 °F - 21.0 °F 21% 29.75 in 10.0 mi West 18.4 mph 32.2 mph N/A   Clear
12:53 PM 63.0 °F - 21.0 °F 20% 29.73 in 10.0 mi West 23.0 mph 31.1 mph N/A   Clear
1:53 PM 62.1 °F - 18.0 °F 18% 29.73 in 10.0 mi West 16.1 mph 28.8 mph N/A   Clear
2:53 PM 63.0 °F - 12.9 °F 14% 29.73 in 10.0 mi West 23.0 mph 32.2 mph N/A   Clear
3:53 PM 62.1 °F - 10.0 °F 13% 29.74 in 10.0 mi WSW 27.6 mph 34.5 mph N/A   Clear
4:53 PM 60.1 °F - 9.0 °F 13% 29.77 in 10.0 mi WSW 21.9 mph 33.4 mph N/A   Clear
5:53 PM 57.9 °F - 7.0 °F 13% 29.81 in 10.0 mi West 16.1 mph - N/A   Clear
6:53 PM 50.0 °F - 5.0 °F 16% 29.87 in 10.0 mi WNW 6.9 mph - N/A   Clear
7:53 PM 48.0 °F - 3.9 °F 16% 29.91 in 10.0 mi NNW 8.1 mph - N/A   Partly Cloudy
8:53 PM 46.0 °F 41.9 °F 6.1 °F 20% 29.92 in 10.0 mi North 8.1 mph - N/A   Mostly Cloudy
9:53 PM 44.1 °F 39.0 °F 8.1 °F 23% 29.93 in 10.0 mi NNE 9.2 mph - N/A   Mostly Cloudy
10:53 PM 39.9 °F 34.5 °F 10.0 °F 29% 29.96 in 10.0 mi NNE 8.1 mph - N/A   Scattered Clouds
11:53 PM 43.0 °F 37.7 °F 12.0 °F 28% 29.94 in 10.0 mi ENE 9.2 mph - N/A   Overcast